Wind_Speed
57 58 57 58 56 55 54 54 54 53 51 47 46 44 43 42 41 40 39 38 38 39 39 40 41 42 44 44 45 47 48 50 51 52 54 56 57 58
55 55 56 56 54 54 53 54 53 51 50 47 47 44 43 41 40 40 39 38 38 38 39 40 41 42 43 44 46 47 49 51 52 52 54 55 57 58
52 52 53 53 52 52 52 52 51 51 49 47 46 45 43 41 41 40 39 38 37 38 39 40 40 41 43 44 46 48 50 51 51 52 54 55 56 57
49 49 50 50 49 49 49 49 49 49 48 47 46 45 43 41 41 39 37 37 37 37 38 38 39 41 42 44 46 48 49 50 51 52 54 55 56 55
46 48 49 49 48 47 47 47 47 46 45 45 45 44 43 41 39 38 37 37 37 37 37 37 39 41 42 44 46 47 48 50 51 52 53 54 54 53
45 47 47 46 46 45 45 44 44 43 43 44 44 43 42 39 37 36 37 37 37 36 36 37 39 40 42 44 46 46 47 49 50 51 52 52 52 51
43 45 44 43 44 43 43 42 41 40 42 42 42 41 39 37 36 36 36 35 36 35 36 37 38 40 42 43 44 45 46 48 49 50 51 51 50 49
42 44 43 42 43 42 41 40 39 38 40 40 40 40 37 35 35 34 33 33 34 34 36 36 38 40 41 42 42 44 46 47 48 49 49 49 48 47
41 42 42 43 42 41 40 39 39 38 37 37 38 37 36 36 35 33 32 32 32 34 35 36 38 39 40 41 42 43 44 46 47 48 47 46 45 44
39 40 40 41 41 39 38 38 38 36 36 36 36 35 36 35 34 33 32 33 33 33 34 36 37 38 38 39 40 42 43 45 46 46 45 44 42 42
37 38 38 39 38 37 37 36 36 36 36 35 35 34 33 32 32 32 32 33 32 33 34 34 35 36 37 38 39 40 42 43 43 43 43 42 40 39
36 37 37 37 37 36 35 34 34 34 35 35 33 32 30 30 30 30 31 31 32 32 33 33 34 35 36 36 37 40 41 41 41 40 40 40 38 37
36 35 36 36 36 35 34 33 32 33 33 33 31 30 30 29 30 30 30 30 30 31 31 32 33 34 34 35 36 38 39 39 39 38 39 38 36 35
35 35 35 36 36 35 34 32 31 31 31 30 29 29 29 29 29 29 29 29 30 30 30 30 31 32 33 33 35 37 38 37 36 37 36 35 34 34
33 33 33 34 34 33 32 31 30 29 29 28 27 27 27 28 27 27 27 28 28 28 28 29 29 30 31 33 35 35 35 35 35 34 34 33 32 32
33 33 32 31 31 29 30 30 29 28 27 27 27 26 26 25 25 26 26 26 26 26 26 26 27 29 31 32 33 33 33 33 33 32 32 31 31 31
32 32 31 30 29 27 27 28 27 27 26 26 26 26 25 24 23 23 24 24 24 24 24 25 27 29 30 31 31 31 31 31 31 30 30 29 30 30
30 29 29 28 27 27 26 26 25 25 26 26 25 24 23 22 21 22 22 21 21 22 23 25 27 28 29 30 30 30 30 29 29 29 28 28 28 28
29 28 27 27 26 25 25 26 25 25 25 25 24 22 21 20 20 20 19 19 20 21 22 24 26 27 28 28 28 28 27 27 27 27 27 27 26 26
28 26 26 26 25 25 25 25 24 24 24 23 22 20 19 18 18 18 18 18 19 21 21 22 24 26 26 26 26 26 25 25 25 25 26 26 24 23
27 26 26 25 25 24 24 23 23 23 23 21 19 18 17 17 16 16 17 17 18 19 20 22 24 24 24 24 24 24 23 23 23 23 25 24 22 21
27 26 26 26 25 24 23 22 21 21 21 20 18 16 15 15 15 15 16 16 18 18 20 21 22 22 23 23 22 22 22 21 22 22 22 20 19 19
27 26 25 26 26 24 22 21 20 20 18 17 16 15 15 14 14 15 15 16 17 18 19 19 20 21 22 21 21 21 20 20 20 20 19 18 16 16
Wind_Direction
239 239 238 237 237 237 238 241 244 245 247 249 250 251 253 255 258 262 266 270 274 279 283 287 290 292 295 298 301 304 306 308 309 311 312 313 315 316
238 237 237 235 235 236 238 240 242 244 246 247 249 249 252 256 258 262 266 270 274 278 283 287 289 293 296 299 302 304 306 308 310 312 313 315 316 317
236 235 234 233 234 235 237 239 242 244 246 246 247 249 252 256 260 264 266 269 273 278 283 287 289 292 296 300 302 304 306 309 311 312 314 316 317 318
233 231 230 230 231 234 237 239 241 243 246 246 247 250 251 255 259 262 265 270 274 278 283 287 290 293 296 300 303 304 307 309 311 314 316 317 319 319
230 228 227 229 230 233 237 239 241 242 243 245 246 248 249 253 256 260 265 270 273 279 284 287 291 294 297 300 303 305 308 310 313 315 317 319 320 320
228 227 228 229 229 233 235 237 239 241 243 244 245 247 249 252 255 261 265 269 274 279 284 288 292 295 298 301 304 306 309 311 314 316 318 320 320 321
228 225 226 227 229 231 233 235 237 241 243 243 245 247 248 251 255 260 266 271 275 280 285 289 293 296 299 302 305 308 310 313 315 317 319 320 321 322
226 224 227 227 229 230 231 233 237 240 241 243 245 245 246 250 254 259 265 270 276 281 286 289 293 298 301 303 306 309 311 314 316 318 320 320 321 322
224 225 226 227 228 230 231 233 236 237 240 242 244 244 246 250 255 260 266 272 278 283 287 290 294 298 302 304 306 309 312 315 317 319 320 320 321 324
221 222 224 226 226 228 231 232 233 234 237 240 242 244 247 251 255 261 268 273 277 283 287 292 295 299 303 304 307 311 314 316 318 319 320 321 323 325
219 221 223 224 225 228 230 230 231 233 235 238 241 243 245 249 255 261 267 272 278 283 288 292 296 300 303 306 309 312 315 317 319 320 321 323 324 326
217 219 221 223 224 227 228 228 230 233 235 236 239 241 244 248 255 261 267 273 278 284 289 294 298 301 304 307 309 313 315 318 320 321 323 324 325 327
216 217 218 221 223 224 224 227 230 232 233 234 236 238 243 249 255 260 266 274 280 286 290 294 298 301 304 307 310 314 316 318 320 321 323 325 327 328
217 217 218 220 221 221 222 226 229 231 231 233 235 239 244 251 256 260 266 274 279 285 290 294 298 302 305 309 312 315 317 319 320 322 324 326 328 329
213 214 215 216 217 219 222 224 228 231 230 231 234 240 245 250 255 260 267 274 278 284 289 294 298 302 305 309 313 316 318 319 320 323 326 327 329 331
211 210 211 212 215 219 222 224 227 230 230 230 234 238 243 250 256 262 268 272 277 283 288 293 298 302 306 311 314 317 318 319 321 323 327 329 330 332
207 208 210 211 213 217 220 223 225 229 228 229 232 237 244 251 257 262 267 272 277 283 288 294 299 303 308 312 315 317 319 320 323 325 327 329 331 333
207 209 211 211 213 217 219 221 224 225 226 229 233 238 244 250 256 261 266 272 280 285 290 295 300 304 308 312 315 318 320 322 324 326 328 330 332 335
208 210 211 211 213 215 217 220 222 223 225 227 231 236 243 250 256 260 264 273 281 287 292 297 303 307 309 312 315 318 320 322 325 327 329 331 333 336
206 209 210 210 213 214 215 217 219 224 225 226 229 235 241 249 254 257 265 274 282 289 294 300 305 309 311 313 315 319 321 321 323 327 330 332 334 338
204 206 208 210 211 211 215 219 222 224 223 224 228 234 240 246 251 257 268 277 286 292 297 303 307 310 311 314 316 319 320 320 323 327 331 333 336 340
203 206 208 210 210 211 214 218 221 221 222 223 226 231 236 242 251 261 269 279 289 296 299 304 309 312 313 316 318 319 319 321 325 330 333 336 339 343
203 205 209 210 208 209 213 216 217 217 219 221 223 227 232 241 252 261 271 282 291 296 300 306 312 314 316 318 319 320 321 323 327 331 336 341 346 351
Height
5604 5611 5619 5626 5633 5639 5646 5652 5658 5662 5668 5671 5674 5677 5679 5681 5683 5684 5685 5684 5684 5683 5681 5678 5675 5672 5668 5663 5658 5652 5646 5639 5632 5624 5616 5607 5598 5588
5591 5598 5606 5614 5621 5627 5634 5640 5645 5651 5657 5662 5664 5667 5670 5672 5673 5675 5675 5675 5675 5674 5672 5669 5666 5663 5659 5654 5649 5643 5636 5629 5622 5614 5606 5596 5587 5577
5579 5587 5594 5602 5609 5616 5623 5628 5634 5640 5645 5651 5654 5657 5660 5663 5664 5666 5666 5666 5666 5665 5663 5660 5657 5654 5650 5645 5640 5634 5627 5620 5612 5604 5595 5586 5576 5567
5569 5576 5584 5592 5599 5606 5612 5618 5623 5629 5634 5640 5644 5648 5651 5653 5655 5657 5657 5657 5657 5656 5654 5651 5649 5645 5641 5636 5631 5624 5617 5610 5602 5594 5586 5577 5567 5556
5558 5566 5574 5582 5589 5596 5602 5607 5614 5619 5624 5630 5634 5638 5642 5644 5646 5647 5648 5649 5648 5647 5645 5643 5640 5637 5632 5627 5621 5615 5608 5601 5594 5585 5576 5566 5557 5547
5549 5557 5565 5573 5580 5587 5593 5599 5605 5610 5615 5620 5625 5629 5632 5635 5637 5639 5640 5640 5640 5639 5637 5635 5632 5628 5623 5618 5613 5606 5599 5592 5584 5575 5566 5557 5547 5538
5540 5548 5556 5564 5571 5577 5584 5590 5596 5601 5606 5611 5615 5619 5623 5626 5629 5630 5631 5631 5631 5630 5629 5626 5624 5620 5615 5609 5603 5597 5590 5583 5575 5566 5557 5548 5539 5530
5532 5540 5548 5555 5562 5568 5575 5582 5588 5593 5598 5602 5606 5611 5615 5618 5620 5622 5623 5623 5623 5623 5620 5618 5614 5610 5606 5600 5594 5588 5581 5574 5566 5558 5549 5540 5531 5522
5525 5533 5540 5547 5554 5560 5567 5573 5579 5585 5589 5594 5598 5602 5606 5610 5612 5614 5615 5615 5615 5613 5611 5609 5605 5601 5597 5592 5586 5580 5573 5566 5558 5550 5541 5532 5523 5515
5518 5525 5533 5540 5546 5553 5559 5565 5571 5577 5581 5586 5590 5595 5598 5601 5603 5605 5606 5607 5606 5605 5603 5600 5597 5593 5588 5583 5578 5572 5565 5558 5550 5542 5533 5525 5517 5508
5512 5519 5525 5532 5539 5545 5551 5558 5564 5569 5573 5578 5583 5586 5590 5593 5595 5597 5598 5598 5598 5597 5595 5592 5589 5584 5580 5575 5570 5564 5557 5550 5543 5535 5527 5518 5510 5502
5505 5512 5519 5525 5532 5538 5544 5550 5556 5562 5566 5571 5575 5578 5582 5585 5587 5589 5590 5591 5590 5589 5587 5584 5581 5577 5573 5568 5562 5556 5550 5543 5536 5528 5520 5512 5504 5497
5499 5506 5513 5519 5525 5531 5537 5543 5549 5554 5559 5563 5567 5571 5574 5577 5579 5582 5583 5583 5582 5581 5580 5577 5573 5569 5565 5560 5555 5549 5543 5536 5529 5522 5514 5507 5499 5492
5494 5500 5507 5513 5519 5525 5531 5537 5542 5547 5552 5556 5560 5564 5567 5571 5573 5574 5574 5575 5574 5574 5571 5569 5566 5562 5558 5553 5548 5542 5536 5529 5522 5516 5509 5501 5494 5487
5488 5494 5501 5507 5513 5519 5525 5530 5535 5539 5544 5549 5553 5557 5561 5563 5565 5566 5567 5567 5567 5566 5564 5561 5559 5555 5551 5546 5541 5535 5529 5523 5517 5510 5503 5496 5490 5483
5482 5488 5495 5501 5507 5514 5519 5524 5529 5533 5538 5542 5547 5551 5553 5556 5558 5559 5560 5560 5559 5558 5557 5554 5551 5548 5544 5539 5534 5528 5523 5517 5511 5504 5498 5492 5485 5479
5478 5484 5490 5497 5503 5508 5513 5518 5523 5528 5532 5536 5540 5544 5546 5549 5551 5552 5553 5553 5553 5552 5550 5548 5545 5541 5537 5532 5527 5522 5517 5511 5506 5499 5493 5487 5481 5475
5474 5481 5487 5493 5498 5504 5509 5514 5518 5522 5527 5531 5534 5537 5540 5543 5545 5546 5546 5546 5546 5545 5544 5542 5538 5535 5530 5526 5522 5516 5511 5506 5500 5495 5489 5483 5477 5472
5471 5477 5483 5489 5494 5499 5504 5509 5513 5518 5522 5526 5529 5532 5534 5537 5538 5540 5540 5540 5540 5539 5537 5535 5531 5528 5524 5520 5516 5511 5506 5501 5496 5490 5485 5479 5474 5468
5467 5473 5479 5485 5490 5495 5500 5504 5509 5513 5517 5520 5523 5526 5529 5531 5533 5534 5535 5535 5534 5533 5531 5528 5525 5522 5518 5514 5510 5506 5501 5496 5491 5486 5481 5475 5470 5465
5464 5470 5476 5481 5486 5491 5496 5500 5504 5508 5512 5515 5519 5522 5524 5526 5528 5529 5529 5529 5529 5527 5525 5523 5519 5516 5512 5508 5505 5501 5496 5492 5487 5483 5477 5472 5468 5463
5461 5467 5472 5477 5482 5487 5492 5496 5500 5504 5508 5511 5514 5517 5520 5522 5523 5524 5524 5524 5523 5522 5520 5517 5514 5510 5507 5504 5500 5496 5492 5488 5484 5479 5474 5470 5466 5462
5457 5463 5468 5473 5478 5484 5488 5493 5497 5501 5504 5507 5510 5513 5515 5517 5519 5519 5519 5519 5518 5516 5515 5512 5509 5506 5502 5499 5496 5492 5488 5484 5480 5476 5472 5468 5464 5461